Location: Hilton Head Island
(32.2163°N, 80.7526°W)
Time: 17:07:07
(UTC-04:00)

Explorer 7 - Pass Details

Date: 16 February 2026
Orbit: 430 x 542 km, 50.2° (Epoch: 8 March)

Event Time Altitude Azimuth Distance (km) Brightness Sun altitude
Rises 00:00:19 0° 296° (WNW) 2,644 - -68.4°
Reaches altitude 10° 00:02:55 10° 280° (W) 1,771 - -68.6°
Maximum altitude 00:05:57 21° 231° (SW) 1,243 - -68.9°
Drops below altitude 10° 00:09:03 10° 182° (S) 1,793 - -69.1°
Sets 00:11:42 0° 166° (SSE) 2,688 - -69.3°
